Tracking 25953 objects as of 15-Aug-2022
HD Live streaming from Space Station
objects crossing your sky now

SL-8 DEB

Track SL-8 DEB now!
10-day predictions


NORAD ID: 39840
Int'l Code: 1991-009DY
Perigee: 996.6 km
Apogee: 1,178.3 km
Inclination: 73.8 °
Period: 106.8 minutes
Semi major axis: 7458 km
RCS: 0.0175 m2 (small)
Launch date: February 12, 1991
Source: Commonwealth of Independent States (former USSR) (CIS)
Launch site: PLESETSK MISSILE AND SPACE COMPLEX (PKMTR)

Note: This is SATELLITE DEBRIS
aabbcc
Your satellite tracking list
Your tracking list is empty




NASA's NSSDC Master Catalog

Two Line Element Set (TLE):
1 39840U 91009DY  22227.37693615  .00002918  00000-0  45731-2 0  9990
2 39840  73.8066 214.0432 0121800 205.8112 225.7463 13.47807081403963
Source of the keplerian elements: AFSPC